Location: Unspecified
(0.0000°N, 0.0000°E)
Time: 06:50:22
(UTC+00:00)

Vanguard 2 Rocket - Pass Details

Date: 12 October 2023
Orbit: 552 x 3312 km, 32.9° (Epoch: 06 December)

Event Time Altitude Azimuth Distance (km) Brightness Sun altitude
Rises 03:51:23 0° 250° (WSW) 2,789 - -28.6°
Reaches altitude 10° 03:53:25 10° 257° (WSW) 1,992 - -28.1°
Maximum altitude 03:57:39 44° 330° (NNW) 1,063 - -27.0°
Exits shadow 03:58:39 40° 359° (N) 1,199 7.3 -26.8°
Drops below altitude 10° 04:03:58 10° 41° (NE) 2,976 9.9 -25.4°
Sets 04:07:41 0° 47° (NE) 4,376 10.9 -24.5°
